(214514) = 2006 DB20

Discovered at Kitt Peak on 2006-02-20 by Spacewatch.

Orbit

Orbit type: Jupiter Trojan

Note: WebGL enabled browser required.

epoch2024-03-31.0
epoch JD2460400.5
perihelion date2025-05-19.67805
perihelion JD2460815.17805
argument of perihelion (°)230.35731
ascending node (°)142.61438
inclination (°)16.40075
eccentricity0.0590182
perihelion distance (AU)4.8705794
Tisserand w.r.t. Jupiter2.9
ΔV w.r.t. Earth (km/sec)13.2
semimajor axis (AU)5.1760611
mean anomaly (°)325.29310
mean daily motion (°/day)0.08369600
aphelion distance (AU)5.482
period (years)11.78
P-vector [x]0.95545665
P-vector [y]0.26959136
P-vector [z]-0.12009615
Q-vector [x]-0.24023188
Q-vector [y]0.94680016
Q-vector [z]0.21414503
absolute magnitude12.98
phase slope0.15
uncertainty0
referenceMPEC 2024-C37
observations used495
oppositions18
arc length (days)8060
first opposition used2001
last opposition used2023
residual rms (arc-secs)0.71
perturbers coarse indicatorM-v
perturbers precise indicator003Ek
first observation date used2001-10-15.0
last observation date used2023-11-09.0
computer nameMPCLINUX
JD of orbit computation2456966.806107
perihelion JD uncertainty (days)3.8635E-04
argument of perihelion uncertainty (°)3.6925E-05
ascending node uncertainty (°)1.4619E-05
inclination uncertainty (°)3.3640E-06
eccentricity uncertainty 4.1735E-08
perihelion distance uncertainty (AU)2.5531E-07
Minimum Orbit Intersection Distances (in AU)
for orbit epoch: 2460200.5, reference: E2024-C37
Mercury4.51485
Venus4.15514
Earth3.89265
Mars3.50499
Jupiter0.01375
Saturn3.87911
Uranus13.0364
Neptune25.0501

Observations

503 total observations over interval: 2001 10 15.31877 – 2023 11 09.224863
These data are available for download (format description).

Date (UT) J2000 RA J2000 Dec Magn Location Ref
2001 10 15.31877 01 11 32.93 -09 58 45.7 20.4   644 – Palomar Mountain/NEAT MPS 171629
2001 10 15.32925 01 11 32.63 -09 58 48.1 20.6   644 – Palomar Mountain/NEAT MPS 171629
2001 10 15.33992 01 11 32.32 -09 58 49.9 20.0   644 – Palomar Mountain/NEAT MPS 171629
2002 10 10.467410 03 53 58.489 +00 22 50.98 20.18 V 645 – Apache Point-Sloan Digital Sky Survey MPS 171629
2002 10 10.470882 03 53 58.432 +00 22 50.21 20.91   645 – Apache Point-Sloan Digital Sky Survey MPS 171629
2002 10 31.346150 03 46 10.947 -00 48 42.09 19.98 V 645 – Apache Point-Sloan Digital Sky Survey MPS 171629
2002 10 31.349622 03 46 10.846 -00 48 42.74 20.76   645 – Apache Point-Sloan Digital Sky Survey MPS 171629
2002 11 07.306790 03 42 47.880 -01 07 52.03 19.85 V 645 – Apache Point-Sloan Digital Sky Survey MPS 171629
2002 11 07.310262 03 42 47.771 -01 07 52.56 20.59   645 – Apache Point-Sloan Digital Sky Survey MPS 171629
2005 01 17.363007 08 09 23.124 +12 21 38.37 20.02 V 645 – Apache Point-Sloan Digital Sky Survey MPS 390292
2005 01 17.366479 08 09 23.011 +12 21 39.02 20.73   645 – Apache Point-Sloan Digital Sky Survey MPS 390292
2005 01 18.24481 08 08 55.41 +12 24 25.3 19.3 R 703 – Catalina Sky Survey MPS 171629
2005 01 18.25374 08 08 55.19 +12 24 27.4 19.2 R 703 – Catalina Sky Survey MPS 171629
2005 01 18.26267 08 08 54.83 +12 24 28.7 19.5 R 703 – Catalina Sky Survey MPS 171629
2005 01 18.27159 08 08 54.41 +12 24 31.6 18.8 R 703 – Catalina Sky Survey MPS 171629
2006 01 23.36080 10 28 02.96 +11 59 02.4 20.0 V 691 – Steward Observatory, Kitt Peak-Spacewatch MPS 167167
2006 01 23.37814 10 28 02.73 +11 59 05.0 19.9 V 691 – Steward Observatory, Kitt Peak-Spacewatch MPS 167167
2006 01 23.39548 10 28 02.27 +11 59 09.0 20.3 V 691 – Steward Observatory, Kitt Peak-Spacewatch MPS 167167
2006 02 01.33888 10 24 40.25 +12 35 26.5 20.2 V 691 – Steward Observatory, Kitt Peak-Spacewatch MPS 167167
2006 02 01.35617 10 24 39.81 +12 35 30.8 20.1 V 691 – Steward Observatory, Kitt Peak-Spacewatch MPS 167167
2006 02 01.37345 10 24 39.33 +12 35 34.7 20.1 V 691 – Steward Observatory, Kitt Peak-Spacewatch MPS 167167
2006 02 03.35359 10 23 49.81 +12 44 00.7 20.2   704 – Lincoln Laboratory ETS, New Mexico MPS 167167
2006 02 03.36777 10 23 49.45 +12 44 04.3 19.9   704 – Lincoln Laboratory ETS, New Mexico MPS 167167
2006 02 03.38156 10 23 48.97 +12 44 06.7 20.0   704 – Lincoln Laboratory ETS, New Mexico MPS 167167
2006 02 20.18186 10 16 05.35 +13 57 34.6   691 – Steward Observatory, Kitt Peak-Spacewatch MPS 165219
2006 02 20.19911 10 16 04.84 +13 57 39.0   691 – Steward Observatory, Kitt Peak-Spacewatch MPS 165219
2006 02 20.21637 10 16 04.30 +13 57 43.3   691 – Steward Observatory, Kitt Peak-Spacewatch MPS 165219
2006 02 24.17857 10 14 10.02 +14 14 49.7 20.1 V 691 – Steward Observatory, Kitt Peak-Spacewatch MPS 165219
2006 02 24.19585 10 14 09.51 +14 14 54.0 20.0 V 691 – Steward Observatory, Kitt Peak-Spacewatch MPS 165219
2006 02 24.21316 10 14 09.01 +14 14 58.6 20.1 V 691 – Steward Observatory, Kitt Peak-Spacewatch MPS 165219
2006 03 24.11953 10 02 23.32 +15 57 10.2 20.4 V 691 – Steward Observatory, Kitt Peak-Spacewatch MPS 167167
2006 03 24.14090 10 02 22.90 +15 57 13.5 20.5 V 691 – Steward Observatory, Kitt Peak-Spacewatch MPS 167167
2006 03 24.16225 10 02 22.47 +15 57 17.1 20.9 V 691 – Steward Observatory, Kitt Peak-Spacewatch MPS 167167
2007 03 20.32218 12 18 45.21 +11 19 09.8 20.8 V 703 – Catalina Sky Survey MPS 204641
2007 03 20.32991 12 18 45.00 +11 19 13.5 20.2 V 703 – Catalina Sky Survey MPS 204641
2007 03 20.33677 12 18 44.85 +11 19 13.8 20.5 V 703 – Catalina Sky Survey MPS 204641
2007 03 20.34367 12 18 44.49 +11 19 17.0 20.5 V 703 – Catalina Sky Survey MPS 204641
2008 03 12.37028 14 28 07.41 +03 31 37.5   291 – LPL/Spacewatch II MPS 242150
2008 03 12.39758 14 28 07.07 +03 31 44.4   291 – LPL/Spacewatch II MPS 242150
2008 03 12.43114 14 28 06.65 +03 31 52.8   291 – LPL/Spacewatch II MPS 242150
2008 04 01.42256 14 22 11.74 +04 56 18.6 20.3 V G96 – Mt. Lemmon Survey MPS 244735
2008 04 01.42710 14 22 11.60 +04 56 19.6 20.3 V G96 – Mt. Lemmon Survey MPS 244735
2008 04 01.43178 14 22 11.53 +04 56 20.8 20.3 V G96 – Mt. Lemmon Survey MPS 244735
2008 04 01.43637 14 22 11.38 +04 56 22.0 20.0 V G96 – Mt. Lemmon Survey MPS 244735
2009 04 20.10943 16 22 50.70 -01 57 08.8   621 – Bergisch Gladbach MPS 284384
2009 04 20.12039 16 22 50.49 -01 57 07.1   621 – Bergisch Gladbach MPS 284384
2009 04 20.13135 16 22 50.27 -01 57 05.3 20.1 C 621 – Bergisch Gladbach MPS 284384
2009 04 20.44539 16 22 44.41 -01 56 08.7 20.2 V 691 – Steward Observatory, Kitt Peak-Spacewatch MPS 284384
2009 04 20.46057 16 22 44.12 -01 56 06.0 20.3 V 691 – Steward Observatory, Kitt Peak-Spacewatch MPS 284384
2009 04 20.47573 16 22 43.81 -01 56 03.3 20.2 V 691 – Steward Observatory, Kitt Peak-Spacewatch MPS 284384
2009 04 21.10686 16 22 31.99 -01 54 13.3   621 – Bergisch Gladbach MPS 284384
2009 04 21.12058 16 22 31.70 -01 54 11.3   621 – Bergisch Gladbach MPS 284384
2009 04 21.13429 16 22 31.35 -01 54 07.2 20.2 C 621 – Bergisch Gladbach MPS 284384
2009 05 19.00458 16 10 42.52 -00 49 13.4   621 – Bergisch Gladbach MPS 287338
2009 05 19.01417 16 10 42.17 -00 49 12.2   621 – Bergisch Gladbach MPS 287338
2009 05 19.02376 16 10 41.85 -00 49 11.7 19.9 C 621 – Bergisch Gladbach MPS 287338
2009 05 20.04839 16 10 11.59 -00 47 40.9   621 – Bergisch Gladbach MPS 287338
2009 05 20.05978 16 10 11.26 -00 47 40.0   621 – Bergisch Gladbach MPS 287338
2009 05 20.07028 16 10 10.93 -00 47 38.8 19.6 C 621 – Bergisch Gladbach MPS 287338
2009 05 23.01576 16 08 43.34 -00 43 42.6   621 – Bergisch Gladbach MPS 287924
2009 05 23.02671 16 08 43.03 -00 43 41.9   621 – Bergisch Gladbach MPS 287924
2009 05 23.03767 16 08 42.64 -00 43 40.8 20.0 C 621 – Bergisch Gladbach MPS 287924
2009 05 24.97111 16 07 45.01 -00 41 27.7   621 – Bergisch Gladbach MPS 287924
2009 05 24.98206 16 07 44.69 -00 41 27.1   621 – Bergisch Gladbach MPS 287924
2009 05 24.99301 16 07 44.35 -00 41 26.7 20.1 C 621 – Bergisch Gladbach MPS 287924
2009 05 25.99114 16 07 14.57 -00 40 22.9   621 – Bergisch Gladbach MPS 287924
2009 05 26.00592 16 07 14.06 -00 40 23.1   621 – Bergisch Gladbach MPS 287924
2009 05 26.02179 16 07 13.56 -00 40 23.5 20.1 C 621 – Bergisch Gladbach MPS 287924
2009 05 28.93214 16 05 46.97 -00 37 49.3   621 – Bergisch Gladbach MPS 288610
2009 05 28.94719 16 05 46.56 -00 37 47.9   621 – Bergisch Gladbach MPS 288610
2009 05 28.95951 16 05 46.17 -00 37 47.9 20.1 C 621 – Bergisch Gladbach MPS 288610
2009 09 17.10899 16 02 53.88 -05 39 59.4 20.8 V G96 – Mt. Lemmon Survey MPS 295684
2009 09 17.11502 16 02 54.13 -05 40 01.7 20.6 V G96 – Mt. Lemmon Survey MPS 295684
2009 09 17.12137 16 02 54.27 -05 40 02.7 20.7 V G96 – Mt. Lemmon Survey MPS 295684
2009 09 17.12743 16 02 54.45 -05 40 04.2 20.7 V G96 – Mt. Lemmon Survey MPS 295684
2011 07 26.40062 20 30 21.297 -12 46 05.92 20.3 g F51 – Pan-STARRS 1, Haleakala MPS 387714
2011 07 26.41082 20 30 20.979 -12 46 07.98 20.3 g F51 – Pan-STARRS 1, Haleakala MPS 387714
2011 07 26.42209 20 30 20.624 -12 46 10.52 19.8 r F51 – Pan-STARRS 1, Haleakala MPS 387714
2011 07 26.43187 20 30 20.293 -12 46 12.40 20.2 r F51 – Pan-STARRS 1, Haleakala MPS 387714
2011 08 03.39483 20 26 19.273 -13 15 28.77 20.2 g F51 – Pan-STARRS 1, Haleakala MPS 388337
2011 08 03.40574 20 26 18.934 -13 15 31.32 20.2 g F51 – Pan-STARRS 1, Haleakala MPS 388337
2011 08 03.41806 20 26 18.551 -13 15 34.13 19.8 r F51 – Pan-STARRS 1, Haleakala MPS 388337
2011 08 03.42847 20 26 18.228 -13 15 36.42 19.7 r F51 – Pan-STARRS 1, Haleakala MPS 388337
2012 08 09.27877 23 10 57.85 -11 31 23.4 19.7 G G45 – Space Surveillance Telescope, Atom Site MPS 1607636
2012 08 09.32004 23 10 56.98 -11 31 35.2 20.3 G G45 – Space Surveillance Telescope, Atom Site MPS 1607636
2012 08 09.38928 23 10 55.52 -11 31 54.9 19.9 G G45 – Space Surveillance Telescope, Atom Site MPS 1607636
2012 08 09.43179 23 10 54.59 -11 32 06.3 19.5 G G45 – Space Surveillance Telescope, Atom Site MPS 1607636
2012 08 10.25553 23 10 37.84 -11 36 02.6 20.2 G G45 – Space Surveillance Telescope, Atom Site MPS 1607636
2012 08 10.26759 23 10 37.62 -11 36 05.9 19.3 G G45 – Space Surveillance Telescope, Atom Site MPS 1607636
